[ hide orbit diagram ]
For accurate long-term ephemerides, please instead use our Horizons system.This orbit viewer was implemented using two-body methods, and hence should not be used for determining accurate long-term trajectories (over several years or decades) or planetary encounter circumstances.
Orbital Elements at Epoch 2459000.5 (2020-May-31.0) TDB
Reference: JPL 20 (heliocentric ecliptic J2000)
Element | Value | Uncertainty (1-sigma) | Units |
e | .09001874414687779 | 4.4366e-08 | |
a | 2.37277353445756 | 1.1435e-08 | au |
q | 2.159179440740742 | 1.0482e-07 | au |
i | 8.696680101970921 | 5.1183e-06 | deg |
node | 107.4511550682669 | 2.6442e-05 | deg |
peri | 204.2236402146856 | 3.656e-05 | deg |
M | 83.81393478641493 | 2.4329e-05 | deg |
tp | 2458689.688849872741 (2019-Jul-25.18884987) | 9.039e-05 | TDB |
period | 1335.004904983286 3.66 | 9.6505e-06 2.642e-08 | d yr |
n | .269661930571339 | 1.9493e-09 | deg/d |
Q | 2.586367628174378 | 1.2464e-08 | au |
|
| | Orbit Determination Parameters
Additional Information
|
[ show covariance matrix ]
Physical Parameter Table
Parameter |
Symbol |
Value |
Units |
Sigma |
Reference |
Notes |
absolute magnitude |
H |
15.6 |
|
n/a |
MPO502671 |
|
|
86895 (2000 HW34) Discovered 2000-Apr-25 by Uppsala-DLR Asteroid Survey at Kvistaberg |
Reference: 20040830/Numbers.arc | Last Updated: 2004-09-06 |
|
|